Index of /20260430/WXO-DD/model_gdps/15km/00/054
Name Last modified Size Description
Parent Directory -
20260430T00Z_MSC_GDPS_AbsoluteVorticity_IsbL-0200_LatLon0.15_PT054H.grib2 2026-04-30 04:11 1.5M
20260430T00Z_MSC_GDPS_AbsoluteVorticity_IsbL-0250_LatLon0.15_PT054H.grib2 2026-04-30 04:11 1.6M
20260430T00Z_MSC_GDPS_AbsoluteVorticity_IsbL-0500_LatLon0.15_PT054H.grib2 2026-04-30 04:11 1.4M
20260430T00Z_MSC_GDPS_AbsoluteVorticity_IsbL-0700_LatLon0.15_PT054H.grib2 2026-04-30 04:11 1.3M
20260430T00Z_MSC_GDPS_AbsoluteVorticity_IsbL-0850_LatLon0.15_PT054H.grib2 2026-04-30 04:11 1.6M
20260430T00Z_MSC_GDPS_AirTemp-Max_AGL-2m_LatLon0.15_PT054H.grib2 2026-04-30 04:11 742K
20260430T00Z_MSC_GDPS_AirTemp-Min_AGL-2m_LatLon0.15_PT054H.grib2 2026-04-30 04:11 787K
20260430T00Z_MSC_GDPS_AirTemp_AGL-120m_LatLon0.15_PT054H.grib2 2026-04-30 04:11 906K
20260430T00Z_MSC_GDPS_AirTemp_AGL-2m_LatLon0.15_PT054H.grib2 2026-04-30 04:11 1.0M
20260430T00Z_MSC_GDPS_AirTemp_AGL-40m_LatLon0.15_PT054H.grib2 2026-04-30 04:11 810K
20260430T00Z_MSC_GDPS_AirTemp_AGL-80m_LatLon0.15_PT054H.grib2 2026-04-30 04:11 915K
20260430T00Z_MSC_GDPS_AirTemp_IsbL-0001_LatLon0.15_PT054H.grib2 2026-04-30 04:11 656K
20260430T00Z_MSC_GDPS_AirTemp_IsbL-0005_LatLon0.15_PT054H.grib2 2026-04-30 04:11 684K
20260430T00Z_MSC_GDPS_AirTemp_IsbL-0010_LatLon0.15_PT054H.grib2 2026-04-30 04:11 757K
20260430T00Z_MSC_GDPS_AirTemp_IsbL-0020_LatLon0.15_PT054H.grib2 2026-04-30 04:11 784K
20260430T00Z_MSC_GDPS_AirTemp_IsbL-0030_LatLon0.15_PT054H.grib2 2026-04-30 04:11 745K
20260430T00Z_MSC_GDPS_AirTemp_IsbL-0050_LatLon0.15_PT054H.grib2 2026-04-30 04:11 801K
20260430T00Z_MSC_GDPS_AirTemp_IsbL-0100_LatLon0.15_PT054H.grib2 2026-04-30 04:11 956K
20260430T00Z_MSC_GDPS_AirTemp_IsbL-0150_LatLon0.15_PT054H.grib2 2026-04-30 04:11 969K
20260430T00Z_MSC_GDPS_AirTemp_IsbL-0175_LatLon0.15_PT054H.grib2 2026-04-30 04:11 955K
20260430T00Z_MSC_GDPS_AirTemp_IsbL-0200_LatLon0.15_PT054H.grib2 2026-04-30 04:11 967K
20260430T00Z_MSC_GDPS_AirTemp_IsbL-0225_LatLon0.15_PT054H.grib2 2026-04-30 04:11 1.0M
20260430T00Z_MSC_GDPS_AirTemp_IsbL-0250_LatLon0.15_PT054H.grib2 2026-04-30 04:11 1.0M
20260430T00Z_MSC_GDPS_AirTemp_IsbL-0275_LatLon0.15_PT054H.grib2 2026-04-30 04:11 1.0M
20260430T00Z_MSC_GDPS_AirTemp_IsbL-0300_LatLon0.15_PT054H.grib2 2026-04-30 04:11 1.0M
20260430T00Z_MSC_GDPS_AirTemp_IsbL-0350_LatLon0.15_PT054H.grib2 2026-04-30 04:11 919K
20260430T00Z_MSC_GDPS_AirTemp_IsbL-0400_LatLon0.15_PT054H.grib2 2026-04-30 04:11 934K
20260430T00Z_MSC_GDPS_AirTemp_IsbL-0450_LatLon0.15_PT054H.grib2 2026-04-30 04:11 955K
20260430T00Z_MSC_GDPS_AirTemp_IsbL-0500_LatLon0.15_PT054H.grib2 2026-04-30 04:11 1.0M
20260430T00Z_MSC_GDPS_AirTemp_IsbL-0550_LatLon0.15_PT054H.grib2 2026-04-30 04:11 794K
20260430T00Z_MSC_GDPS_AirTemp_IsbL-0600_LatLon0.15_PT054H.grib2 2026-04-30 04:11 884K
20260430T00Z_MSC_GDPS_AirTemp_IsbL-0650_LatLon0.15_PT054H.grib2 2026-04-30 04:11 914K
20260430T00Z_MSC_GDPS_AirTemp_IsbL-0700_LatLon0.15_PT054H.grib2 2026-04-30 04:11 948K
20260430T00Z_MSC_GDPS_AirTemp_IsbL-0750_LatLon0.15_PT054H.grib2 2026-04-30 04:11 1.0M
20260430T00Z_MSC_GDPS_AirTemp_IsbL-0800_LatLon0.15_PT054H.grib2 2026-04-30 04:11 1.1M
20260430T00Z_MSC_GDPS_AirTemp_IsbL-0850_LatLon0.15_PT054H.grib2 2026-04-30 04:11 1.1M
20260430T00Z_MSC_GDPS_AirTemp_IsbL-0875_LatLon0.15_PT054H.grib2 2026-04-30 04:11 1.2M
20260430T00Z_MSC_GDPS_AirTemp_IsbL-0900_LatLon0.15_PT054H.grib2 2026-04-30 04:11 1.1M
20260430T00Z_MSC_GDPS_AirTemp_IsbL-0925_LatLon0.15_PT054H.grib2 2026-04-30 04:11 1.1M
20260430T00Z_MSC_GDPS_AirTemp_IsbL-0950_LatLon0.15_PT054H.grib2 2026-04-30 04:11 1.1M
20260430T00Z_MSC_GDPS_AirTemp_IsbL-0970_LatLon0.15_PT054H.grib2 2026-04-30 04:11 1.2M
20260430T00Z_MSC_GDPS_AirTemp_IsbL-0985_LatLon0.15_PT054H.grib2 2026-04-30 04:11 1.1M
20260430T00Z_MSC_GDPS_AirTemp_IsbL-1000_LatLon0.15_PT054H.grib2 2026-04-30 04:11 1.1M
20260430T00Z_MSC_GDPS_AirTemp_IsbL-1015_LatLon0.15_PT054H.grib2 2026-04-30 04:11 1.1M
20260430T00Z_MSC_GDPS_Albedo_Sfc_LatLon0.15_PT054H.grib2 2026-04-30 04:11 243K
20260430T00Z_MSC_GDPS_CAPE_Sfc_LatLon0.15_PT054H.grib2 2026-04-30 04:11 3.9M
20260430T00Z_MSC_GDPS_CIN_Sfc_LatLon0.15_PT054H.grib2 2026-04-30 04:11 2.9M
20260430T00Z_MSC_GDPS_CloudWater_EAtm_LatLon0.15_PT054H.grib2 2026-04-30 04:11 530K
20260430T00Z_MSC_GDPS_ConvectivePrecip-Accum_Sfc_LatLon0.15_PT054H.grib2 2026-04-30 04:11 3.0M
20260430T00Z_MSC_GDPS_DewPointDepression_AGL-2m_LatLon0.15_PT054H.grib2 2026-04-30 04:11 768K
20260430T00Z_MSC_GDPS_DewPointDepression_IsbL-0010_LatLon0.15_PT054H.grib2 2026-04-30 04:11 61K
20260430T00Z_MSC_GDPS_DewPointDepression_IsbL-0020_LatLon0.15_PT054H.grib2 2026-04-30 04:11 64K
20260430T00Z_MSC_GDPS_DewPointDepression_IsbL-0030_LatLon0.15_PT054H.grib2 2026-04-30 04:11 80K
20260430T00Z_MSC_GDPS_DewPointDepression_IsbL-0050_LatLon0.15_PT054H.grib2 2026-04-30 04:11 372K
20260430T00Z_MSC_GDPS_DewPointDepression_IsbL-0100_LatLon0.15_PT054H.grib2 2026-04-30 04:11 410K
20260430T00Z_MSC_GDPS_DewPointDepression_IsbL-0150_LatLon0.15_PT054H.grib2 2026-04-30 04:11 467K
20260430T00Z_MSC_GDPS_DewPointDepression_IsbL-0175_LatLon0.15_PT054H.grib2 2026-04-30 04:11 574K
20260430T00Z_MSC_GDPS_DewPointDepression_IsbL-0200_LatLon0.15_PT054H.grib2 2026-04-30 04:11 683K
20260430T00Z_MSC_GDPS_DewPointDepression_IsbL-0225_LatLon0.15_PT054H.grib2 2026-04-30 04:11 776K
20260430T00Z_MSC_GDPS_DewPointDepression_IsbL-0250_LatLon0.15_PT054H.grib2 2026-04-30 04:11 857K
20260430T00Z_MSC_GDPS_DewPointDepression_IsbL-0275_LatLon0.15_PT054H.grib2 2026-04-30 04:11 874K
20260430T00Z_MSC_GDPS_DewPointDepression_IsbL-0300_LatLon0.15_PT054H.grib2 2026-04-30 04:11 913K
20260430T00Z_MSC_GDPS_DewPointDepression_IsbL-0350_LatLon0.15_PT054H.grib2 2026-04-30 04:11 940K
20260430T00Z_MSC_GDPS_DewPointDepression_IsbL-0400_LatLon0.15_PT054H.grib2 2026-04-30 04:11 1.0M
20260430T00Z_MSC_GDPS_DewPointDepression_IsbL-0450_LatLon0.15_PT054H.grib2 2026-04-30 04:11 1.0M
20260430T00Z_MSC_GDPS_DewPointDepression_IsbL-0500_LatLon0.15_PT054H.grib2 2026-04-30 04:11 1.0M
20260430T00Z_MSC_GDPS_DewPointDepression_IsbL-0550_LatLon0.15_PT054H.grib2 2026-04-30 04:11 1.0M
20260430T00Z_MSC_GDPS_DewPointDepression_IsbL-0600_LatLon0.15_PT054H.grib2 2026-04-30 04:11 1.0M
20260430T00Z_MSC_GDPS_DewPointDepression_IsbL-0650_LatLon0.15_PT054H.grib2 2026-04-30 04:11 1.1M
20260430T00Z_MSC_GDPS_DewPointDepression_IsbL-0700_LatLon0.15_PT054H.grib2 2026-04-30 04:11 1.1M
20260430T00Z_MSC_GDPS_DewPointDepression_IsbL-0750_LatLon0.15_PT054H.grib2 2026-04-30 04:11 1.1M
20260430T00Z_MSC_GDPS_DewPointDepression_IsbL-0800_LatLon0.15_PT054H.grib2 2026-04-30 04:11 1.2M
20260430T00Z_MSC_GDPS_DewPointDepression_IsbL-0850_LatLon0.15_PT054H.grib2 2026-04-30 04:11 1.2M
20260430T00Z_MSC_GDPS_DewPointDepression_IsbL-0875_LatLon0.15_PT054H.grib2 2026-04-30 04:11 1.1M
20260430T00Z_MSC_GDPS_DewPointDepression_IsbL-0900_LatLon0.15_PT054H.grib2 2026-04-30 04:11 1.0M
20260430T00Z_MSC_GDPS_DewPointDepression_IsbL-0925_LatLon0.15_PT054H.grib2 2026-04-30 04:11 1.0M
20260430T00Z_MSC_GDPS_DewPointDepression_IsbL-0950_LatLon0.15_PT054H.grib2 2026-04-30 04:11 1.0M
20260430T00Z_MSC_GDPS_DewPointDepression_IsbL-0970_LatLon0.15_PT054H.grib2 2026-04-30 04:11 1.0M
20260430T00Z_MSC_GDPS_DewPointDepression_IsbL-0985_LatLon0.15_PT054H.grib2 2026-04-30 04:11 1.0M
20260430T00Z_MSC_GDPS_DewPointDepression_IsbL-1000_LatLon0.15_PT054H.grib2 2026-04-30 04:11 1.0M
20260430T00Z_MSC_GDPS_DewPointDepression_IsbL-1015_LatLon0.15_PT054H.grib2 2026-04-30 04:11 916K
20260430T00Z_MSC_GDPS_DewPoint_AGL-2m_LatLon0.15_PT054H.grib2 2026-04-30 04:11 605K
20260430T00Z_MSC_GDPS_DownwardLongwaveRadiationFlux-Accum_Sfc_LatLon0.15_PT054H.grib2 2026-04-30 04:11 848K
20260430T00Z_MSC_GDPS_DownwardShortwaveRadiationFlux-Accum_NTAtm_LatLon0.15_PT054H.grib2 2026-04-30 04:11 189K
20260430T00Z_MSC_GDPS_DownwardShortwaveRadiationFlux-Accum_Sfc_LatLon0.15_PT054H.grib2 2026-04-30 04:11 1.0M
20260430T00Z_MSC_GDPS_FreezingRain-Accum12h_Sfc_LatLon0.15_PT054H.grib2 2026-04-30 04:11 103K
20260430T00Z_MSC_GDPS_FreezingRain-Accum1h_Sfc_LatLon0.15_PT054H.grib2 2026-04-30 04:11 34K
20260430T00Z_MSC_GDPS_FreezingRain-Accum24h_Sfc_LatLon0.15_PT054H.grib2 2026-04-30 04:11 164K
20260430T00Z_MSC_GDPS_FreezingRain-Accum3h_Sfc_LatLon0.15_PT054H.grib2 2026-04-30 04:11 41K
20260430T00Z_MSC_GDPS_FreezingRain-Accum6h_Sfc_LatLon0.15_PT054H.grib2 2026-04-30 04:11 69K
20260430T00Z_MSC_GDPS_FreezingRain-Accum_Sfc_LatLon0.15_PT054H.grib2 2026-04-30 04:11 277K
20260430T00Z_MSC_GDPS_GeopotentialHeight_IsbL-0001_LatLon0.15_PT054H.grib2 2026-04-30 04:11 419K
20260430T00Z_MSC_GDPS_GeopotentialHeight_IsbL-0005_LatLon0.15_PT054H.grib2 2026-04-30 04:11 480K
20260430T00Z_MSC_GDPS_GeopotentialHeight_IsbL-0010_LatLon0.15_PT054H.grib2 2026-04-30 04:11 473K
20260430T00Z_MSC_GDPS_GeopotentialHeight_IsbL-0020_LatLon0.15_PT054H.grib2 2026-04-30 04:11 411K
20260430T00Z_MSC_GDPS_GeopotentialHeight_IsbL-0030_LatLon0.15_PT054H.grib2 2026-04-30 04:11 567K
20260430T00Z_MSC_GDPS_GeopotentialHeight_IsbL-0050_LatLon0.15_PT054H.grib2 2026-04-30 04:11 570K
20260430T00Z_MSC_GDPS_GeopotentialHeight_IsbL-0100_LatLon0.15_PT054H.grib2 2026-04-30 04:11 607K
20260430T00Z_MSC_GDPS_GeopotentialHeight_IsbL-0150_LatLon0.15_PT054H.grib2 2026-04-30 04:11 630K
20260430T00Z_MSC_GDPS_GeopotentialHeight_IsbL-0175_LatLon0.15_PT054H.grib2 2026-04-30 04:11 633K
20260430T00Z_MSC_GDPS_GeopotentialHeight_IsbL-0200_LatLon0.15_PT054H.grib2 2026-04-30 04:11 636K
20260430T00Z_MSC_GDPS_GeopotentialHeight_IsbL-0225_LatLon0.15_PT054H.grib2 2026-04-30 04:11 634K
20260430T00Z_MSC_GDPS_GeopotentialHeight_IsbL-0250_LatLon0.15_PT054H.grib2 2026-04-30 04:11 641K
20260430T00Z_MSC_GDPS_GeopotentialHeight_IsbL-0275_LatLon0.15_PT054H.grib2 2026-04-30 04:11 640K
20260430T00Z_MSC_GDPS_GeopotentialHeight_IsbL-0300_LatLon0.15_PT054H.grib2 2026-04-30 04:11 631K
20260430T00Z_MSC_GDPS_GeopotentialHeight_IsbL-0350_LatLon0.15_PT054H.grib2 2026-04-30 04:11 630K
20260430T00Z_MSC_GDPS_GeopotentialHeight_IsbL-0400_LatLon0.15_PT054H.grib2 2026-04-30 04:11 620K
20260430T00Z_MSC_GDPS_GeopotentialHeight_IsbL-0450_LatLon0.15_PT054H.grib2 2026-04-30 04:11 611K
20260430T00Z_MSC_GDPS_GeopotentialHeight_IsbL-0500_LatLon0.15_PT054H.grib2 2026-04-30 04:11 532K
20260430T00Z_MSC_GDPS_GeopotentialHeight_IsbL-0550_LatLon0.15_PT054H.grib2 2026-04-30 04:11 523K
20260430T00Z_MSC_GDPS_GeopotentialHeight_IsbL-0600_LatLon0.15_PT054H.grib2 2026-04-30 04:11 519K
20260430T00Z_MSC_GDPS_GeopotentialHeight_IsbL-0650_LatLon0.15_PT054H.grib2 2026-04-30 04:11 685K
20260430T00Z_MSC_GDPS_GeopotentialHeight_IsbL-0700_LatLon0.15_PT054H.grib2 2026-04-30 04:11 687K
20260430T00Z_MSC_GDPS_GeopotentialHeight_IsbL-0750_LatLon0.15_PT054H.grib2 2026-04-30 04:11 688K
20260430T00Z_MSC_GDPS_GeopotentialHeight_IsbL-0800_LatLon0.15_PT054H.grib2 2026-04-30 04:11 698K
20260430T00Z_MSC_GDPS_GeopotentialHeight_IsbL-0850_LatLon0.15_PT054H.grib2 2026-04-30 04:11 710K
20260430T00Z_MSC_GDPS_GeopotentialHeight_IsbL-0875_LatLon0.15_PT054H.grib2 2026-04-30 04:11 716K
20260430T00Z_MSC_GDPS_GeopotentialHeight_IsbL-0900_LatLon0.15_PT054H.grib2 2026-04-30 04:11 725K
20260430T00Z_MSC_GDPS_GeopotentialHeight_IsbL-0925_LatLon0.15_PT054H.grib2 2026-04-30 04:11 734K
20260430T00Z_MSC_GDPS_GeopotentialHeight_IsbL-0950_LatLon0.15_PT054H.grib2 2026-04-30 04:11 740K
20260430T00Z_MSC_GDPS_GeopotentialHeight_IsbL-0970_LatLon0.15_PT054H.grib2 2026-04-30 04:11 754K
20260430T00Z_MSC_GDPS_GeopotentialHeight_IsbL-0985_LatLon0.15_PT054H.grib2 2026-04-30 04:11 769K
20260430T00Z_MSC_GDPS_GeopotentialHeight_IsbL-1000_LatLon0.15_PT054H.grib2 2026-04-30 04:11 790K
20260430T00Z_MSC_GDPS_GeopotentialHeight_IsbL-1015_LatLon0.15_PT054H.grib2 2026-04-30 04:11 812K
20260430T00Z_MSC_GDPS_Humidex_Sfc_LatLon0.15_PT054H.grib2 2026-04-30 04:11 5.3M
20260430T00Z_MSC_GDPS_IcePellets-Accum12h_Sfc_LatLon0.15_PT054H.grib2 2026-04-30 04:11 21K
20260430T00Z_MSC_GDPS_IcePellets-Accum1h_Sfc_LatLon0.15_PT054H.grib2 2026-04-30 04:11 6.7K
20260430T00Z_MSC_GDPS_IcePellets-Accum24h_Sfc_LatLon0.15_PT054H.grib2 2026-04-30 04:11 38K
20260430T00Z_MSC_GDPS_IcePellets-Accum3h_Sfc_LatLon0.15_PT054H.grib2 2026-04-30 04:11 7.9K
20260430T00Z_MSC_GDPS_IcePellets-Accum6h_Sfc_LatLon0.15_PT054H.grib2 2026-04-30 04:11 13K
20260430T00Z_MSC_GDPS_IcePellets-Accum_Sfc_LatLon0.15_PT054H.grib2 2026-04-30 04:11 61K
20260430T00Z_MSC_GDPS_KIndex_Sfc_LatLon0.15_PT054H.grib2 2026-04-30 04:11 6.0M
20260430T00Z_MSC_GDPS_LatentHeatNetFlux_Sfc_LatLon0.15_PT054H.grib2 2026-04-30 04:11 542K
20260430T00Z_MSC_GDPS_LiftedIndex-MU-VT_IsbL-0500_LatLon0.15_PT054H.grib2 2026-04-30 04:11 5.4M
20260430T00Z_MSC_GDPS_NetLongwaveRadiationFlux-Accum_Sfc_LatLon0.15_PT054H.grib2 2026-04-30 04:11 1.2M
20260430T00Z_MSC_GDPS_NetShortwaveRadiationFlux-Accum_Sfc_LatLon0.15_PT054H.grib2 2026-04-30 04:11 1.0M
20260430T00Z_MSC_GDPS_O3MixingRatio_Sfc_LatLon0.15_PT054H.grib2 2026-04-30 04:50 2.3M
20260430T00Z_MSC_GDPS_O3_EAtm_LatLon0.15_PT054H.grib2 2026-04-30 04:50 2.4M
20260430T00Z_MSC_GDPS_PlanetaryBoundaryLayerHeight_Sfc_LatLon0.15_PT054H.grib2 2026-04-30 04:11 2.5M
20260430T00Z_MSC_GDPS_Precip-Accum12h_Sfc_LatLon0.15_PT054H.grib2 2026-04-30 04:11 4.3M
20260430T00Z_MSC_GDPS_Precip-Accum1h_Sfc_LatLon0.15_PT054H.grib2 2026-04-30 04:11 3.2M
20260430T00Z_MSC_GDPS_Precip-Accum24h_Sfc_LatLon0.15_PT054H.grib2 2026-04-30 04:11 4.5M
20260430T00Z_MSC_GDPS_Precip-Accum3h_Sfc_LatLon0.15_PT054H.grib2 2026-04-30 04:11 3.5M
20260430T00Z_MSC_GDPS_Precip-Accum6h_Sfc_LatLon0.15_PT054H.grib2 2026-04-30 04:11 3.9M
20260430T00Z_MSC_GDPS_Precip-Accum_Sfc_LatLon0.15_PT054H.grib2 2026-04-30 04:11 5.0M
20260430T00Z_MSC_GDPS_PrecipRate_Sfc_LatLon0.15_PT054H.grib2 2026-04-30 04:11 3.0M
20260430T00Z_MSC_GDPS_PrecipType-Instant_Sfc_LatLon0.15_PT054H.grib2 2026-04-30 04:11 1.6M
20260430T00Z_MSC_GDPS_Pressure_MSL_LatLon0.15_PT054H.grib2 2026-04-30 04:11 822K
20260430T00Z_MSC_GDPS_Pressure_PVU-1.5_LatLon0.15_PT054H.grib2 2026-04-30 04:11 5.8M
20260430T00Z_MSC_GDPS_Pressure_PVU-1_LatLon0.15_PT054H.grib2 2026-04-30 04:11 6.0M
20260430T00Z_MSC_GDPS_Pressure_PVU-2_LatLon0.15_PT054H.grib2 2026-04-30 04:11 6.0M
20260430T00Z_MSC_GDPS_Pressure_Sfc_LatLon0.15_PT054H.grib2 2026-04-30 04:11 1.1M
20260430T00Z_MSC_GDPS_RadiativeTemp_Sfc_LatLon0.15_PT054H.grib2 2026-04-30 04:11 496K
20260430T00Z_MSC_GDPS_Rain-Accum12h_Sfc_LatLon0.15_PT054H.grib2 2026-04-30 04:11 2.9M
20260430T00Z_MSC_GDPS_Rain-Accum1h_Sfc_LatLon0.15_PT054H.grib2 2026-04-30 04:11 1.7M
20260430T00Z_MSC_GDPS_Rain-Accum24h_Sfc_LatLon0.15_PT054H.grib2 2026-04-30 04:11 3.2M
20260430T00Z_MSC_GDPS_Rain-Accum3h_Sfc_LatLon0.15_PT054H.grib2 2026-04-30 04:11 1.8M
20260430T00Z_MSC_GDPS_Rain-Accum6h_Sfc_LatLon0.15_PT054H.grib2 2026-04-30 04:11 2.4M
20260430T00Z_MSC_GDPS_Rain-Accum_Sfc_LatLon0.15_PT054H.grib2 2026-04-30 04:11 3.7M
20260430T00Z_MSC_GDPS_RelativeHumidity_AGL-2m_LatLon0.15_PT054H.grib2 2026-04-30 04:11 1.0M
20260430T00Z_MSC_GDPS_RelativeHumidity_IsbL-0010_LatLon0.15_PT054H.grib2 2026-04-30 04:11 198K
20260430T00Z_MSC_GDPS_RelativeHumidity_IsbL-0020_LatLon0.15_PT054H.grib2 2026-04-30 04:11 169K
20260430T00Z_MSC_GDPS_RelativeHumidity_IsbL-0030_LatLon0.15_PT054H.grib2 2026-04-30 04:11 267K
20260430T00Z_MSC_GDPS_RelativeHumidity_IsbL-0050_LatLon0.15_PT054H.grib2 2026-04-30 04:11 415K
20260430T00Z_MSC_GDPS_RelativeHumidity_IsbL-0100_LatLon0.15_PT054H.grib2 2026-04-30 04:11 510K
20260430T00Z_MSC_GDPS_RelativeHumidity_IsbL-0150_LatLon0.15_PT054H.grib2 2026-04-30 04:11 660K
20260430T00Z_MSC_GDPS_RelativeHumidity_IsbL-0175_LatLon0.15_PT054H.grib2 2026-04-30 04:11 786K
20260430T00Z_MSC_GDPS_RelativeHumidity_IsbL-0200_LatLon0.15_PT054H.grib2 2026-04-30 04:11 694K
20260430T00Z_MSC_GDPS_RelativeHumidity_IsbL-0225_LatLon0.15_PT054H.grib2 2026-04-30 04:11 784K
20260430T00Z_MSC_GDPS_RelativeHumidity_IsbL-0250_LatLon0.15_PT054H.grib2 2026-04-30 04:11 857K
20260430T00Z_MSC_GDPS_RelativeHumidity_IsbL-0275_LatLon0.15_PT054H.grib2 2026-04-30 04:11 877K
20260430T00Z_MSC_GDPS_RelativeHumidity_IsbL-0300_LatLon0.15_PT054H.grib2 2026-04-30 04:11 921K
20260430T00Z_MSC_GDPS_RelativeHumidity_IsbL-0350_LatLon0.15_PT054H.grib2 2026-04-30 04:11 941K
20260430T00Z_MSC_GDPS_RelativeHumidity_IsbL-0400_LatLon0.15_PT054H.grib2 2026-04-30 04:11 965K
20260430T00Z_MSC_GDPS_RelativeHumidity_IsbL-0450_LatLon0.15_PT054H.grib2 2026-04-30 04:11 1.0M
20260430T00Z_MSC_GDPS_RelativeHumidity_IsbL-0500_LatLon0.15_PT054H.grib2 2026-04-30 04:11 1.0M
20260430T00Z_MSC_GDPS_RelativeHumidity_IsbL-0550_LatLon0.15_PT054H.grib2 2026-04-30 04:11 1.0M
20260430T00Z_MSC_GDPS_RelativeHumidity_IsbL-0600_LatLon0.15_PT054H.grib2 2026-04-30 04:11 1.1M
20260430T00Z_MSC_GDPS_RelativeHumidity_IsbL-0650_LatLon0.15_PT054H.grib2 2026-04-30 04:11 1.1M
20260430T00Z_MSC_GDPS_RelativeHumidity_IsbL-0700_LatLon0.15_PT054H.grib2 2026-04-30 04:11 1.1M
20260430T00Z_MSC_GDPS_RelativeHumidity_IsbL-0750_LatLon0.15_PT054H.grib2 2026-04-30 04:11 1.2M
20260430T00Z_MSC_GDPS_RelativeHumidity_IsbL-0800_LatLon0.15_PT054H.grib2 2026-04-30 04:11 1.2M
20260430T00Z_MSC_GDPS_RelativeHumidity_IsbL-0850_LatLon0.15_PT054H.grib2 2026-04-30 04:11 1.3M
20260430T00Z_MSC_GDPS_RelativeHumidity_IsbL-0875_LatLon0.15_PT054H.grib2 2026-04-30 04:11 1.3M
20260430T00Z_MSC_GDPS_RelativeHumidity_IsbL-0900_LatLon0.15_PT054H.grib2 2026-04-30 04:11 1.2M
20260430T00Z_MSC_GDPS_RelativeHumidity_IsbL-0925_LatLon0.15_PT054H.grib2 2026-04-30 04:11 1.2M
20260430T00Z_MSC_GDPS_RelativeHumidity_IsbL-0950_LatLon0.15_PT054H.grib2 2026-04-30 04:11 1.2M
20260430T00Z_MSC_GDPS_RelativeHumidity_IsbL-0970_LatLon0.15_PT054H.grib2 2026-04-30 04:11 1.2M
20260430T00Z_MSC_GDPS_RelativeHumidity_IsbL-0985_LatLon0.15_PT054H.grib2 2026-04-30 04:11 1.1M
20260430T00Z_MSC_GDPS_RelativeHumidity_IsbL-1000_LatLon0.15_PT054H.grib2 2026-04-30 04:11 1.1M
20260430T00Z_MSC_GDPS_RelativeHumidity_IsbL-1015_LatLon0.15_PT054H.grib2 2026-04-30 04:11 1.0M
20260430T00Z_MSC_GDPS_RelativeVorticity_IsbL-0200_LatLon0.15_PT054H.grib2 2026-04-30 04:11 1.5M
20260430T00Z_MSC_GDPS_RelativeVorticity_IsbL-0250_LatLon0.15_PT054H.grib2 2026-04-30 04:11 1.6M
20260430T00Z_MSC_GDPS_RelativeVorticity_IsbL-0500_LatLon0.15_PT054H.grib2 2026-04-30 04:11 1.4M
20260430T00Z_MSC_GDPS_RelativeVorticity_IsbL-0700_LatLon0.15_PT054H.grib2 2026-04-30 04:11 1.3M
20260430T00Z_MSC_GDPS_RelativeVorticity_IsbL-0850_LatLon0.15_PT054H.grib2 2026-04-30 04:11 1.6M
20260430T00Z_MSC_GDPS_Runoff-Accum_Sfc_LatLon0.15_PT054H.grib2 2026-04-30 04:11 132K
20260430T00Z_MSC_GDPS_SensibleHeatNetFlux_Sfc_LatLon0.15_PT054H.grib2 2026-04-30 04:11 651K
20260430T00Z_MSC_GDPS_ShowalterIndex_IsbL-0500_LatLon0.15_PT054H.grib2 2026-04-30 04:11 6.2M
20260430T00Z_MSC_GDPS_Snow-Accum12h_Sfc_LatLon0.15_PT054H.grib2 2026-04-30 04:11 1.4M
20260430T00Z_MSC_GDPS_Snow-Accum1h_Sfc_LatLon0.15_PT054H.grib2 2026-04-30 04:11 1.1M
20260430T00Z_MSC_GDPS_Snow-Accum24h_Sfc_LatLon0.15_PT054H.grib2 2026-04-30 04:11 1.5M
20260430T00Z_MSC_GDPS_Snow-Accum3h_Sfc_LatLon0.15_PT054H.grib2 2026-04-30 04:11 1.0M
20260430T00Z_MSC_GDPS_Snow-Accum6h_Sfc_LatLon0.15_PT054H.grib2 2026-04-30 04:11 1.3M
20260430T00Z_MSC_GDPS_Snow-Accum_Sfc_LatLon0.15_PT054H.grib2 2026-04-30 04:11 2.0M
20260430T00Z_MSC_GDPS_SnowDensity_Sfc_LatLon0.15_PT054H.grib2 2026-04-30 04:11 265K
20260430T00Z_MSC_GDPS_SnowDepth_Sfc_LatLon0.15_PT054H.grib2 2026-04-30 04:11 1.7M
20260430T00Z_MSC_GDPS_SoilTemp_DBS-0to10cm_LatLon0.15_PT054H.grib2 2026-04-30 04:11 504K
20260430T00Z_MSC_GDPS_SoilTemp_Sfc_LatLon0.15_PT054H.grib2 2026-04-30 04:11 579K
20260430T00Z_MSC_GDPS_SoilVolumetricIceContent_Sfc_LatLon0.15_PT054H.grib2 2026-04-30 04:11 202K
20260430T00Z_MSC_GDPS_SoilVolumetricWaterContent_DBS-0to10cm_LatLon0.15_PT054H.grib2 2026-04-30 04:11 586K
20260430T00Z_MSC_GDPS_SoilVolumetricWaterContent_DBS-0to1cm_LatLon0.15_PT054H.grib2 2026-04-30 04:11 653K
20260430T00Z_MSC_GDPS_SpecificHumidity_AGL-120m_LatLon0.15_PT054H.grib2 2026-04-30 04:11 1.1M
20260430T00Z_MSC_GDPS_SpecificHumidity_AGL-2m_LatLon0.15_PT054H.grib2 2026-04-30 04:11 1.2M
20260430T00Z_MSC_GDPS_SpecificHumidity_AGL-40m_LatLon0.15_PT054H.grib2 2026-04-30 04:11 1.1M
20260430T00Z_MSC_GDPS_SpecificHumidity_AGL-80m_LatLon0.15_PT054H.grib2 2026-04-30 04:11 1.1M
20260430T00Z_MSC_GDPS_SpecificHumidity_IsbL-0001_LatLon0.15_PT054H.grib2 2026-04-30 04:11 1.3M
20260430T00Z_MSC_GDPS_SpecificHumidity_IsbL-0005_LatLon0.15_PT054H.grib2 2026-04-30 04:11 1.2M
20260430T00Z_MSC_GDPS_SpecificHumidity_IsbL-0010_LatLon0.15_PT054H.grib2 2026-04-30 04:11 1.3M
20260430T00Z_MSC_GDPS_SpecificHumidity_IsbL-0020_LatLon0.15_PT054H.grib2 2026-04-30 04:11 1.4M
20260430T00Z_MSC_GDPS_SpecificHumidity_IsbL-0030_LatLon0.15_PT054H.grib2 2026-04-30 04:11 1.3M
20260430T00Z_MSC_GDPS_SpecificHumidity_IsbL-0050_LatLon0.15_PT054H.grib2 2026-04-30 04:11 1.3M
20260430T00Z_MSC_GDPS_SpecificHumidity_IsbL-0100_LatLon0.15_PT054H.grib2 2026-04-30 04:11 1.4M
20260430T00Z_MSC_GDPS_SpecificHumidity_IsbL-0150_LatLon0.15_PT054H.grib2 2026-04-30 04:11 1.3M
20260430T00Z_MSC_GDPS_SpecificHumidity_IsbL-0175_LatLon0.15_PT054H.grib2 2026-04-30 04:11 1.2M
20260430T00Z_MSC_GDPS_SpecificHumidity_IsbL-0200_LatLon0.15_PT054H.grib2 2026-04-30 04:11 1.3M
20260430T00Z_MSC_GDPS_SpecificHumidity_IsbL-0225_LatLon0.15_PT054H.grib2 2026-04-30 04:11 1.3M
20260430T00Z_MSC_GDPS_SpecificHumidity_IsbL-0250_LatLon0.15_PT054H.grib2 2026-04-30 04:11 1.4M
20260430T00Z_MSC_GDPS_SpecificHumidity_IsbL-0275_LatLon0.15_PT054H.grib2 2026-04-30 04:11 1.3M
20260430T00Z_MSC_GDPS_SpecificHumidity_IsbL-0300_LatLon0.15_PT054H.grib2 2026-04-30 04:11 1.2M
20260430T00Z_MSC_GDPS_SpecificHumidity_IsbL-0350_LatLon0.15_PT054H.grib2 2026-04-30 04:11 1.5M
20260430T00Z_MSC_GDPS_SpecificHumidity_IsbL-0400_LatLon0.15_PT054H.grib2 2026-04-30 04:11 1.4M
20260430T00Z_MSC_GDPS_SpecificHumidity_IsbL-0450_LatLon0.15_PT054H.grib2 2026-04-30 04:11 1.6M
20260430T00Z_MSC_GDPS_SpecificHumidity_IsbL-0500_LatLon0.15_PT054H.grib2 2026-04-30 04:11 1.4M
20260430T00Z_MSC_GDPS_SpecificHumidity_IsbL-0550_LatLon0.15_PT054H.grib2 2026-04-30 04:11 1.6M
20260430T00Z_MSC_GDPS_SpecificHumidity_IsbL-0600_LatLon0.15_PT054H.grib2 2026-04-30 04:11 1.7M
20260430T00Z_MSC_GDPS_SpecificHumidity_IsbL-0650_LatLon0.15_PT054H.grib2 2026-04-30 04:11 1.5M
20260430T00Z_MSC_GDPS_SpecificHumidity_IsbL-0700_LatLon0.15_PT054H.grib2 2026-04-30 04:11 1.6M
20260430T00Z_MSC_GDPS_SpecificHumidity_IsbL-0750_LatLon0.15_PT054H.grib2 2026-04-30 04:11 1.7M
20260430T00Z_MSC_GDPS_SpecificHumidity_IsbL-0800_LatLon0.15_PT054H.grib2 2026-04-30 04:11 1.8M
20260430T00Z_MSC_GDPS_SpecificHumidity_IsbL-0850_LatLon0.15_PT054H.grib2 2026-04-30 04:11 1.9M
20260430T00Z_MSC_GDPS_SpecificHumidity_IsbL-0875_LatLon0.15_PT054H.grib2 2026-04-30 04:11 1.9M
20260430T00Z_MSC_GDPS_SpecificHumidity_IsbL-0900_LatLon0.15_PT054H.grib2 2026-04-30 04:11 1.9M
20260430T00Z_MSC_GDPS_SpecificHumidity_IsbL-0925_LatLon0.15_PT054H.grib2 2026-04-30 04:11 1.6M
20260430T00Z_MSC_GDPS_SpecificHumidity_IsbL-0950_LatLon0.15_PT054H.grib2 2026-04-30 04:11 1.6M
20260430T00Z_MSC_GDPS_SpecificHumidity_IsbL-0970_LatLon0.15_PT054H.grib2 2026-04-30 04:11 1.5M
20260430T00Z_MSC_GDPS_SpecificHumidity_IsbL-0985_LatLon0.15_PT054H.grib2 2026-04-30 04:11 1.5M
20260430T00Z_MSC_GDPS_SpecificHumidity_IsbL-1000_LatLon0.15_PT054H.grib2 2026-04-30 04:11 1.5M
20260430T00Z_MSC_GDPS_SpecificHumidity_IsbL-1015_LatLon0.15_PT054H.grib2 2026-04-30 04:11 1.4M
20260430T00Z_MSC_GDPS_SpecificHumidity_Sfc_LatLon0.15_PT054H.grib2 2026-04-30 04:11 667K
20260430T00Z_MSC_GDPS_Thickness_IsbL-0850to0700_LatLon0.15_PT054H.grib2 2026-04-30 04:11 463K
20260430T00Z_MSC_GDPS_Thickness_IsbL-1000to0500_LatLon0.15_PT054H.grib2 2026-04-30 04:11 372K
20260430T00Z_MSC_GDPS_Thickness_IsbL-1000to0850_LatLon0.15_PT054H.grib2 2026-04-30 04:11 488K
20260430T00Z_MSC_GDPS_TotalCloudCover_Sfc_LatLon0.15_PT054H.grib2 2026-04-30 04:11 823K
20260430T00Z_MSC_GDPS_TotalTotalsIndex_Sfc_LatLon0.15_PT054H.grib2 2026-04-30 04:11 6.1M
20260430T00Z_MSC_GDPS_UVIndex-ClearSky_Sfc_LatLon0.15_PT054H.grib2 2026-04-30 04:50 1.1M
20260430T00Z_MSC_GDPS_UVIndex_Sfc_LatLon0.15_PT054H.grib2 2026-04-30 04:50 1.5M
20260430T00Z_MSC_GDPS_UpwardLongwaveRadiationFlux_NTAtm_LatLon0.15_PT054H.grib2 2026-04-30 04:11 828K
20260430T00Z_MSC_GDPS_VerticalVelocity_IsbL-0200_LatLon0.15_PT054H.grib2 2026-04-30 04:11 1.1M
20260430T00Z_MSC_GDPS_VerticalVelocity_IsbL-0250_LatLon0.15_PT054H.grib2 2026-04-30 04:11 1.0M
20260430T00Z_MSC_GDPS_VerticalVelocity_IsbL-0500_LatLon0.15_PT054H.grib2 2026-04-30 04:11 1.0M
20260430T00Z_MSC_GDPS_VerticalVelocity_IsbL-0600_LatLon0.15_PT054H.grib2 2026-04-30 04:11 1.1M
20260430T00Z_MSC_GDPS_VerticalVelocity_IsbL-0700_LatLon0.15_PT054H.grib2 2026-04-30 04:11 1.1M
20260430T00Z_MSC_GDPS_VerticalVelocity_IsbL-0850_LatLon0.15_PT054H.grib2 2026-04-30 04:11 1.0M
20260430T00Z_MSC_GDPS_WindChill_Sfc_LatLon0.15_PT054H.grib2 2026-04-30 04:11 5.3M
20260430T00Z_MSC_GDPS_WindDir_AGL-10m_LatLon0.15_PT054H.grib2 2026-04-30 04:11 1.3M
20260430T00Z_MSC_GDPS_WindDir_AGL-120m_LatLon0.15_PT054H.grib2 2026-04-30 04:11 1.3M
20260430T00Z_MSC_GDPS_WindDir_AGL-40m_LatLon0.15_PT054H.grib2 2026-04-30 04:11 1.4M
20260430T00Z_MSC_GDPS_WindDir_AGL-80m_LatLon0.15_PT054H.grib2 2026-04-30 04:11 1.4M
20260430T00Z_MSC_GDPS_WindDir_IsbL-0001_LatLon0.15_PT054H.grib2 2026-04-30 04:11 695K
20260430T00Z_MSC_GDPS_WindDir_IsbL-0005_LatLon0.15_PT054H.grib2 2026-04-30 04:11 795K
20260430T00Z_MSC_GDPS_WindDir_IsbL-0010_LatLon0.15_PT054H.grib2 2026-04-30 04:11 848K
20260430T00Z_MSC_GDPS_WindDir_IsbL-0020_LatLon0.15_PT054H.grib2 2026-04-30 04:11 963K
20260430T00Z_MSC_GDPS_WindDir_IsbL-0030_LatLon0.15_PT054H.grib2 2026-04-30 04:11 930K
20260430T00Z_MSC_GDPS_WindDir_IsbL-0050_LatLon0.15_PT054H.grib2 2026-04-30 04:11 948K
20260430T00Z_MSC_GDPS_WindDir_IsbL-0100_LatLon0.15_PT054H.grib2 2026-04-30 04:11 1.0M
20260430T00Z_MSC_GDPS_WindDir_IsbL-0150_LatLon0.15_PT054H.grib2 2026-04-30 04:11 1.0M
20260430T00Z_MSC_GDPS_WindDir_IsbL-0175_LatLon0.15_PT054H.grib2 2026-04-30 04:11 1.0M
20260430T00Z_MSC_GDPS_WindDir_IsbL-0200_LatLon0.15_PT054H.grib2 2026-04-30 04:11 1.1M
20260430T00Z_MSC_GDPS_WindDir_IsbL-0225_LatLon0.15_PT054H.grib2 2026-04-30 04:11 1.1M
20260430T00Z_MSC_GDPS_WindDir_IsbL-0250_LatLon0.15_PT054H.grib2 2026-04-30 04:11 1.1M
20260430T00Z_MSC_GDPS_WindDir_IsbL-0275_LatLon0.15_PT054H.grib2 2026-04-30 04:11 1.2M
20260430T00Z_MSC_GDPS_WindDir_IsbL-0300_LatLon0.15_PT054H.grib2 2026-04-30 04:11 1.2M
20260430T00Z_MSC_GDPS_WindDir_IsbL-0350_LatLon0.15_PT054H.grib2 2026-04-30 04:11 1.2M
20260430T00Z_MSC_GDPS_WindDir_IsbL-0400_LatLon0.15_PT054H.grib2 2026-04-30 04:11 1.2M
20260430T00Z_MSC_GDPS_WindDir_IsbL-0450_LatLon0.15_PT054H.grib2 2026-04-30 04:11 1.3M
20260430T00Z_MSC_GDPS_WindDir_IsbL-0500_LatLon0.15_PT054H.grib2 2026-04-30 04:11 1.3M
20260430T00Z_MSC_GDPS_WindDir_IsbL-0550_LatLon0.15_PT054H.grib2 2026-04-30 04:11 1.4M
20260430T00Z_MSC_GDPS_WindDir_IsbL-0600_LatLon0.15_PT054H.grib2 2026-04-30 04:11 1.4M
20260430T00Z_MSC_GDPS_WindDir_IsbL-0650_LatLon0.15_PT054H.grib2 2026-04-30 04:11 1.5M
20260430T00Z_MSC_GDPS_WindDir_IsbL-0700_LatLon0.15_PT054H.grib2 2026-04-30 04:11 1.6M
20260430T00Z_MSC_GDPS_WindDir_IsbL-0750_LatLon0.15_PT054H.grib2 2026-04-30 04:11 1.7M
20260430T00Z_MSC_GDPS_WindDir_IsbL-0800_LatLon0.15_PT054H.grib2 2026-04-30 04:11 1.8M
20260430T00Z_MSC_GDPS_WindDir_IsbL-0850_LatLon0.15_PT054H.grib2 2026-04-30 04:11 1.9M
20260430T00Z_MSC_GDPS_WindDir_IsbL-0875_LatLon0.15_PT054H.grib2 2026-04-30 04:11 1.9M
20260430T00Z_MSC_GDPS_WindDir_IsbL-0900_LatLon0.15_PT054H.grib2 2026-04-30 04:11 1.9M
20260430T00Z_MSC_GDPS_WindDir_IsbL-0925_LatLon0.15_PT054H.grib2 2026-04-30 04:11 2.0M
20260430T00Z_MSC_GDPS_WindDir_IsbL-0950_LatLon0.15_PT054H.grib2 2026-04-30 04:11 2.0M
20260430T00Z_MSC_GDPS_WindDir_IsbL-0970_LatLon0.15_PT054H.grib2 2026-04-30 04:11 2.0M
20260430T00Z_MSC_GDPS_WindDir_IsbL-0985_LatLon0.15_PT054H.grib2 2026-04-30 04:11 2.0M
20260430T00Z_MSC_GDPS_WindDir_IsbL-1000_LatLon0.15_PT054H.grib2 2026-04-30 04:11 2.0M
20260430T00Z_MSC_GDPS_WindDir_IsbL-1015_LatLon0.15_PT054H.grib2 2026-04-30 04:11 2.0M
20260430T00Z_MSC_GDPS_WindGust-Max_AGL-10m_LatLon0.15_PT054H.grib2 2026-04-30 04:11 2.2M
20260430T00Z_MSC_GDPS_WindGust-Min_AGL-10m_LatLon0.15_PT054H.grib2 2026-04-30 04:11 2.1M
20260430T00Z_MSC_GDPS_WindGust_AGL-10m_LatLon0.15_PT054H.grib2 2026-04-30 04:11 2.1M
20260430T00Z_MSC_GDPS_WindSpeed_AGL-10m_LatLon0.15_PT054H.grib2 2026-04-30 04:11 1.1M
20260430T00Z_MSC_GDPS_WindSpeed_AGL-120m_LatLon0.15_PT054H.grib2 2026-04-30 04:11 1.2M
20260430T00Z_MSC_GDPS_WindSpeed_AGL-40m_LatLon0.15_PT054H.grib2 2026-04-30 04:11 1.2M
20260430T00Z_MSC_GDPS_WindSpeed_AGL-80m_LatLon0.15_PT054H.grib2 2026-04-30 04:11 1.2M
20260430T00Z_MSC_GDPS_WindSpeed_IsbL-0001_LatLon0.15_PT054H.grib2 2026-04-30 04:11 641K
20260430T00Z_MSC_GDPS_WindSpeed_IsbL-0005_LatLon0.15_PT054H.grib2 2026-04-30 04:11 693K
20260430T00Z_MSC_GDPS_WindSpeed_IsbL-0010_LatLon0.15_PT054H.grib2 2026-04-30 04:11 627K
20260430T00Z_MSC_GDPS_WindSpeed_IsbL-0020_LatLon0.15_PT054H.grib2 2026-04-30 04:11 859K
20260430T00Z_MSC_GDPS_WindSpeed_IsbL-0030_LatLon0.15_PT054H.grib2 2026-04-30 04:11 859K
20260430T00Z_MSC_GDPS_WindSpeed_IsbL-0050_LatLon0.15_PT054H.grib2 2026-04-30 04:11 900K
20260430T00Z_MSC_GDPS_WindSpeed_IsbL-0100_LatLon0.15_PT054H.grib2 2026-04-30 04:11 1.1M
20260430T00Z_MSC_GDPS_WindSpeed_IsbL-0150_LatLon0.15_PT054H.grib2 2026-04-30 04:11 1.0M
20260430T00Z_MSC_GDPS_WindSpeed_IsbL-0175_LatLon0.15_PT054H.grib2 2026-04-30 04:11 1.0M
20260430T00Z_MSC_GDPS_WindSpeed_IsbL-0200_LatLon0.15_PT054H.grib2 2026-04-30 04:11 1.1M
20260430T00Z_MSC_GDPS_WindSpeed_IsbL-0225_LatLon0.15_PT054H.grib2 2026-04-30 04:11 1.1M
20260430T00Z_MSC_GDPS_WindSpeed_IsbL-0250_LatLon0.15_PT054H.grib2 2026-04-30 04:11 1.1M
20260430T00Z_MSC_GDPS_WindSpeed_IsbL-0275_LatLon0.15_PT054H.grib2 2026-04-30 04:11 1.1M
20260430T00Z_MSC_GDPS_WindSpeed_IsbL-0300_LatLon0.15_PT054H.grib2 2026-04-30 04:11 1.1M
20260430T00Z_MSC_GDPS_WindSpeed_IsbL-0350_LatLon0.15_PT054H.grib2 2026-04-30 04:11 1.1M
20260430T00Z_MSC_GDPS_WindSpeed_IsbL-0400_LatLon0.15_PT054H.grib2 2026-04-30 04:11 1.1M
20260430T00Z_MSC_GDPS_WindSpeed_IsbL-0450_LatLon0.15_PT054H.grib2 2026-04-30 04:11 1.1M
20260430T00Z_MSC_GDPS_WindSpeed_IsbL-0500_LatLon0.15_PT054H.grib2 2026-04-30 04:11 1.1M
20260430T00Z_MSC_GDPS_WindSpeed_IsbL-0550_LatLon0.15_PT054H.grib2 2026-04-30 04:11 1.1M
20260430T00Z_MSC_GDPS_WindSpeed_IsbL-0600_LatLon0.15_PT054H.grib2 2026-04-30 04:11 1.4M
20260430T00Z_MSC_GDPS_WindSpeed_IsbL-0650_LatLon0.15_PT054H.grib2 2026-04-30 04:11 1.4M
20260430T00Z_MSC_GDPS_WindSpeed_IsbL-0700_LatLon0.15_PT054H.grib2 2026-04-30 04:11 1.5M
20260430T00Z_MSC_GDPS_WindSpeed_IsbL-0750_LatLon0.15_PT054H.grib2 2026-04-30 04:11 1.5M
20260430T00Z_MSC_GDPS_WindSpeed_IsbL-0800_LatLon0.15_PT054H.grib2 2026-04-30 04:11 1.6M
20260430T00Z_MSC_GDPS_WindSpeed_IsbL-0850_LatLon0.15_PT054H.grib2 2026-04-30 04:11 1.7M
20260430T00Z_MSC_GDPS_WindSpeed_IsbL-0875_LatLon0.15_PT054H.grib2 2026-04-30 04:11 1.8M
20260430T00Z_MSC_GDPS_WindSpeed_IsbL-0900_LatLon0.15_PT054H.grib2 2026-04-30 04:11 1.8M
20260430T00Z_MSC_GDPS_WindSpeed_IsbL-0925_LatLon0.15_PT054H.grib2 2026-04-30 04:11 1.8M
20260430T00Z_MSC_GDPS_WindSpeed_IsbL-0950_LatLon0.15_PT054H.grib2 2026-04-30 04:11 1.8M
20260430T00Z_MSC_GDPS_WindSpeed_IsbL-0970_LatLon0.15_PT054H.grib2 2026-04-30 04:11 1.9M
20260430T00Z_MSC_GDPS_WindSpeed_IsbL-0985_LatLon0.15_PT054H.grib2 2026-04-30 04:11 1.9M
20260430T00Z_MSC_GDPS_WindSpeed_IsbL-1000_LatLon0.15_PT054H.grib2 2026-04-30 04:11 1.9M
20260430T00Z_MSC_GDPS_WindSpeed_IsbL-1015_LatLon0.15_PT054H.grib2 2026-04-30 04:11 1.8M
20260430T00Z_MSC_GDPS_WindU_AGL-10m_LatLon0.15_PT054H.grib2 2026-04-30 04:11 1.3M
20260430T00Z_MSC_GDPS_WindU_AGL-120m_LatLon0.15_PT054H.grib2 2026-04-30 04:11 1.0M
20260430T00Z_MSC_GDPS_WindU_AGL-40m_LatLon0.15_PT054H.grib2 2026-04-30 04:11 968K
20260430T00Z_MSC_GDPS_WindU_AGL-80m_LatLon0.15_PT054H.grib2 2026-04-30 04:11 1.0M
20260430T00Z_MSC_GDPS_WindU_IsbL-0001_LatLon0.15_PT054H.grib2 2026-04-30 04:11 496K
20260430T00Z_MSC_GDPS_WindU_IsbL-0005_LatLon0.15_PT054H.grib2 2026-04-30 04:11 688K
20260430T00Z_MSC_GDPS_WindU_IsbL-0010_LatLon0.15_PT054H.grib2 2026-04-30 04:11 700K
20260430T00Z_MSC_GDPS_WindU_IsbL-0020_LatLon0.15_PT054H.grib2 2026-04-30 04:11 732K
20260430T00Z_MSC_GDPS_WindU_IsbL-0030_LatLon0.15_PT054H.grib2 2026-04-30 04:11 735K
20260430T00Z_MSC_GDPS_WindU_IsbL-0050_LatLon0.15_PT054H.grib2 2026-04-30 04:11 766K
20260430T00Z_MSC_GDPS_WindU_IsbL-0100_LatLon0.15_PT054H.grib2 2026-04-30 04:11 919K
20260430T00Z_MSC_GDPS_WindU_IsbL-0150_LatLon0.15_PT054H.grib2 2026-04-30 04:11 1.0M
20260430T00Z_MSC_GDPS_WindU_IsbL-0175_LatLon0.15_PT054H.grib2 2026-04-30 04:11 813K
20260430T00Z_MSC_GDPS_WindU_IsbL-0200_LatLon0.15_PT054H.grib2 2026-04-30 04:11 840K
20260430T00Z_MSC_GDPS_WindU_IsbL-0225_LatLon0.15_PT054H.grib2 2026-04-30 04:11 850K
20260430T00Z_MSC_GDPS_WindU_IsbL-0250_LatLon0.15_PT054H.grib2 2026-04-30 04:11 851K
20260430T00Z_MSC_GDPS_WindU_IsbL-0275_LatLon0.15_PT054H.grib2 2026-04-30 04:11 876K
20260430T00Z_MSC_GDPS_WindU_IsbL-0300_LatLon0.15_PT054H.grib2 2026-04-30 04:11 866K
20260430T00Z_MSC_GDPS_WindU_IsbL-0350_LatLon0.15_PT054H.grib2 2026-04-30 04:11 878K
20260430T00Z_MSC_GDPS_WindU_IsbL-0400_LatLon0.15_PT054H.grib2 2026-04-30 04:11 1.1M
20260430T00Z_MSC_GDPS_WindU_IsbL-0450_LatLon0.15_PT054H.grib2 2026-04-30 04:11 1.1M
20260430T00Z_MSC_GDPS_WindU_IsbL-0500_LatLon0.15_PT054H.grib2 2026-04-30 04:11 1.1M
20260430T00Z_MSC_GDPS_WindU_IsbL-0550_LatLon0.15_PT054H.grib2 2026-04-30 04:11 1.1M
20260430T00Z_MSC_GDPS_WindU_IsbL-0600_LatLon0.15_PT054H.grib2 2026-04-30 04:11 1.1M
20260430T00Z_MSC_GDPS_WindU_IsbL-0650_LatLon0.15_PT054H.grib2 2026-04-30 04:11 1.2M
20260430T00Z_MSC_GDPS_WindU_IsbL-0700_LatLon0.15_PT054H.grib2 2026-04-30 04:11 1.2M
20260430T00Z_MSC_GDPS_WindU_IsbL-0750_LatLon0.15_PT054H.grib2 2026-04-30 04:11 1.3M
20260430T00Z_MSC_GDPS_WindU_IsbL-0800_LatLon0.15_PT054H.grib2 2026-04-30 04:11 1.3M
20260430T00Z_MSC_GDPS_WindU_IsbL-0850_LatLon0.15_PT054H.grib2 2026-04-30 04:11 1.4M
20260430T00Z_MSC_GDPS_WindU_IsbL-0875_LatLon0.15_PT054H.grib2 2026-04-30 04:11 1.5M
20260430T00Z_MSC_GDPS_WindU_IsbL-0900_LatLon0.15_PT054H.grib2 2026-04-30 04:11 1.5M
20260430T00Z_MSC_GDPS_WindU_IsbL-0925_LatLon0.15_PT054H.grib2 2026-04-30 04:11 1.5M
20260430T00Z_MSC_GDPS_WindU_IsbL-0950_LatLon0.15_PT054H.grib2 2026-04-30 04:11 1.4M
20260430T00Z_MSC_GDPS_WindU_IsbL-0970_LatLon0.15_PT054H.grib2 2026-04-30 04:11 1.4M
20260430T00Z_MSC_GDPS_WindU_IsbL-0985_LatLon0.15_PT054H.grib2 2026-04-30 04:11 1.4M
20260430T00Z_MSC_GDPS_WindU_IsbL-1000_LatLon0.15_PT054H.grib2 2026-04-30 04:11 1.4M
20260430T00Z_MSC_GDPS_WindU_IsbL-1015_LatLon0.15_PT054H.grib2 2026-04-30 04:11 1.3M
20260430T00Z_MSC_GDPS_WindV_AGL-10m_LatLon0.15_PT054H.grib2 2026-04-30 04:11 1.3M
20260430T00Z_MSC_GDPS_WindV_AGL-120m_LatLon0.15_PT054H.grib2 2026-04-30 04:11 1.0M
20260430T00Z_MSC_GDPS_WindV_AGL-40m_LatLon0.15_PT054H.grib2 2026-04-30 04:11 1.0M
20260430T00Z_MSC_GDPS_WindV_AGL-80m_LatLon0.15_PT054H.grib2 2026-04-30 04:11 1.0M
20260430T00Z_MSC_GDPS_WindV_IsbL-0001_LatLon0.15_PT054H.grib2 2026-04-30 04:11 708K
20260430T00Z_MSC_GDPS_WindV_IsbL-0005_LatLon0.15_PT054H.grib2 2026-04-30 04:11 762K
20260430T00Z_MSC_GDPS_WindV_IsbL-0010_LatLon0.15_PT054H.grib2 2026-04-30 04:11 792K
20260430T00Z_MSC_GDPS_WindV_IsbL-0020_LatLon0.15_PT054H.grib2 2026-04-30 04:11 849K
20260430T00Z_MSC_GDPS_WindV_IsbL-0030_LatLon0.15_PT054H.grib2 2026-04-30 04:11 848K
20260430T00Z_MSC_GDPS_WindV_IsbL-0050_LatLon0.15_PT054H.grib2 2026-04-30 04:11 899K
20260430T00Z_MSC_GDPS_WindV_IsbL-0100_LatLon0.15_PT054H.grib2 2026-04-30 04:11 1.1M
20260430T00Z_MSC_GDPS_WindV_IsbL-0150_LatLon0.15_PT054H.grib2 2026-04-30 04:11 1.0M
20260430T00Z_MSC_GDPS_WindV_IsbL-0175_LatLon0.15_PT054H.grib2 2026-04-30 04:11 1.0M
20260430T00Z_MSC_GDPS_WindV_IsbL-0200_LatLon0.15_PT054H.grib2 2026-04-30 04:11 839K
20260430T00Z_MSC_GDPS_WindV_IsbL-0225_LatLon0.15_PT054H.grib2 2026-04-30 04:11 845K
20260430T00Z_MSC_GDPS_WindV_IsbL-0250_LatLon0.15_PT054H.grib2 2026-04-30 04:11 842K
20260430T00Z_MSC_GDPS_WindV_IsbL-0275_LatLon0.15_PT054H.grib2 2026-04-30 04:11 869K
20260430T00Z_MSC_GDPS_WindV_IsbL-0300_LatLon0.15_PT054H.grib2 2026-04-30 04:11 856K
20260430T00Z_MSC_GDPS_WindV_IsbL-0350_LatLon0.15_PT054H.grib2 2026-04-30 04:11 869K
20260430T00Z_MSC_GDPS_WindV_IsbL-0400_LatLon0.15_PT054H.grib2 2026-04-30 04:11 872K
20260430T00Z_MSC_GDPS_WindV_IsbL-0450_LatLon0.15_PT054H.grib2 2026-04-30 04:11 1.1M
20260430T00Z_MSC_GDPS_WindV_IsbL-0500_LatLon0.15_PT054H.grib2 2026-04-30 04:11 1.1M
20260430T00Z_MSC_GDPS_WindV_IsbL-0550_LatLon0.15_PT054H.grib2 2026-04-30 04:11 1.1M
20260430T00Z_MSC_GDPS_WindV_IsbL-0600_LatLon0.15_PT054H.grib2 2026-04-30 04:11 1.1M
20260430T00Z_MSC_GDPS_WindV_IsbL-0650_LatLon0.15_PT054H.grib2 2026-04-30 04:11 1.2M
20260430T00Z_MSC_GDPS_WindV_IsbL-0700_LatLon0.15_PT054H.grib2 2026-04-30 04:11 1.2M
20260430T00Z_MSC_GDPS_WindV_IsbL-0750_LatLon0.15_PT054H.grib2 2026-04-30 04:11 1.3M
20260430T00Z_MSC_GDPS_WindV_IsbL-0800_LatLon0.15_PT054H.grib2 2026-04-30 04:11 1.3M
20260430T00Z_MSC_GDPS_WindV_IsbL-0850_LatLon0.15_PT054H.grib2 2026-04-30 04:11 1.4M
20260430T00Z_MSC_GDPS_WindV_IsbL-0875_LatLon0.15_PT054H.grib2 2026-04-30 04:11 1.4M
20260430T00Z_MSC_GDPS_WindV_IsbL-0900_LatLon0.15_PT054H.grib2 2026-04-30 04:11 1.4M
20260430T00Z_MSC_GDPS_WindV_IsbL-0925_LatLon0.15_PT054H.grib2 2026-04-30 04:11 1.4M
20260430T00Z_MSC_GDPS_WindV_IsbL-0950_LatLon0.15_PT054H.grib2 2026-04-30 04:11 1.4M
20260430T00Z_MSC_GDPS_WindV_IsbL-0970_LatLon0.15_PT054H.grib2 2026-04-30 04:11 1.4M
20260430T00Z_MSC_GDPS_WindV_IsbL-0985_LatLon0.15_PT054H.grib2 2026-04-30 04:11 1.4M
20260430T00Z_MSC_GDPS_WindV_IsbL-1000_LatLon0.15_PT054H.grib2 2026-04-30 04:11 1.4M
20260430T00Z_MSC_GDPS_WindV_IsbL-1015_LatLon0.15_PT054H.grib2 2026-04-30 04:11 1.3M